NSZ8286 EKBI-ULLI

Flight info

Callsign NSZ8286
Flight time N/A
Altitude 35000
Route ABINO DCT MADAG DCT VEPIP DCT ARMOD DCT VSB DCT NEKET DCT TUTVA DCT KEMET DCT MONUS T653 DITEL/K0869F350 T653 OBANA OBANA1B
Aircraft B738/M-SDE2E3FGHIRWXY/LB1

Departure

Time 2026-04-28 18:17
Airport Billund Airport (EKBI)

Arrival

Time N/A
Airport Pulkovo Airport (ULLI)
Time Latitude Longitude Altitude Speed Heading
2026-04-28 17:55 55.74532 9.15016 228 ft 0 kts 357°
2026-04-28 18:11 55.74491 9.15020 228 ft 0 kts 357°
2026-04-28 18:12 55.74500 9.15003 230 ft 3 kts 290°
2026-04-28 18:12 55.74491 9.14968 227 ft 3 kts 229°
2026-04-28 18:12 55.74475 9.14940 227 ft 3 kts 222°
2026-04-28 18:13 55.74460 9.14907 227 ft 4 kts 240°
2026-04-28 18:13 55.74455 9.14864 227 ft 4 kts 265°
2026-04-28 18:13 55.74453 9.14818 226 ft 4 kts 267°
2026-04-28 18:13 55.74452 9.14762 226 ft 8 kts 266°
2026-04-28 18:14 55.74447 9.14592 225 ft 16 kts 266°
2026-04-28 18:14 55.74382 9.14470 224 ft 16 kts 180°
2026-04-28 18:14 55.74278 9.14454 224 ft 15 kts 219°
2026-04-28 18:14 55.74256 9.14278 223 ft 15 kts 268°
2026-04-28 18:15 55.74249 9.14055 221 ft 21 kts 266°
2026-04-28 18:15 55.74241 9.13783 219 ft 22 kts 266°
2026-04-28 18:15 55.74231 9.13516 218 ft 21 kts 263°
2026-04-28 18:15 55.74156 9.13303 216 ft 21 kts 212°
2026-04-28 18:16 55.74021 9.13267 219 ft 20 kts 162°
2026-04-28 18:16 55.73984 9.13484 218 ft 20 kts 85°
2026-04-28 18:16 55.74002 9.14043 218 ft 81 kts 87°
2026-04-28 18:16 55.74048 9.15427 229 ft 144 kts 86°
2026-04-28 18:17 55.74120 9.17453 460 ft 181 kts 83°
2026-04-28 18:17 55.74202 9.19755 1240 ft 186 kts 82°
2026-04-28 18:17 55.74595 9.21956 2033 ft 188 kts 60°
2026-04-28 18:17 55.75255 9.24140 2365 ft 215 kts 59°
2026-04-28 18:18 55.75998 9.26574 2779 ft 231 kts 59°
2026-04-28 18:18 55.76784 9.29177 3323 ft 249 kts 60°
2026-04-28 18:18 55.77620 9.31955 4014 ft 260 kts 60°
2026-04-28 18:18 55.78188 9.33877 4609 ft 261 kts 60°
2026-04-28 18:19 55.79280 9.37627 6085 ft 254 kts 60°
2026-04-28 18:19 55.80079 9.40435 7012 ft 255 kts 60°
2026-04-28 18:19 55.80889 9.43258 7793 ft 259 kts 59°
2026-04-28 18:19 55.81716 9.46134 8598 ft 263 kts 59°
2026-04-28 18:20 55.82555 9.49058 9377 ft 267 kts 59°
2026-04-28 18:20 55.83402 9.52017 10201 ft 271 kts 59°
2026-04-28 18:20 55.84265 9.55035 10845 ft 280 kts 59°
2026-04-28 18:20 55.85186 9.58252 11053 ft 304 kts 60°
2026-04-28 18:21 55.86180 9.61728 11244 ft 327 kts 60°
2026-04-28 18:21 55.87243 9.65457 11440 ft 348 kts 60°
2026-04-28 18:21 55.88366 9.69413 11600 ft 368 kts 60°
2026-04-28 18:21 55.89536 9.73550 11988 ft 378 kts 60°
2026-04-28 18:22 55.90724 9.77767 12615 ft 382 kts 60°
2026-04-28 18:22 55.91922 9.82024 13278 ft 386 kts 60°
2026-04-28 18:22 55.93131 9.86322 13929 ft 389 kts 60°
2026-04-28 18:22 55.94350 9.90652 14516 ft 393 kts 60°
2026-04-28 18:23 55.95576 9.95021 15081 ft 396 kts 60°
2026-04-28 18:23 55.96812 9.99435 15672 ft 398 kts 60°
2026-04-28 18:23 55.97947 10.03982 16236 ft 403 kts 64°
2026-04-28 18:23 55.98962 10.08675 16788 ft 407 kts 66°
2026-04-28 18:24 55.99943 10.13452 17330 ft 410 kts 66°
2026-04-28 18:24 56.00590 10.16635 17696 ft 412 kts 66°
2026-04-28 18:24 56.01913 10.23098 18395 ft 416 kts 66°
2026-04-28 18:24 56.02908 10.27906 18883 ft 420 kts 65°
2026-04-28 18:25 56.03934 10.32819 19310 ft 423 kts 65°
2026-04-28 18:25 56.04967 10.37743 19806 ft 424 kts 65°
2026-04-28 18:25 56.06005 10.42686 20293 ft 425 kts 65°
2026-04-28 18:26 56.08095 10.52646 21200 ft 429 kts 65°
2026-04-28 18:26 56.09143 10.57655 21625 ft 431 kts 65°
2026-04-28 18:26 56.10195 10.62697 22047 ft 433 kts 65°
2026-04-28 18:26 56.11249 10.67759 22461 ft 435 kts 65°
2026-04-28 18:27 56.12275 10.72707 22926 ft 435 kts 65°
2026-04-28 18:27 56.13279 10.77556 23373 ft 435 kts 65°
2026-04-28 18:27 56.14335 10.82671 23745 ft 437 kts 65°
2026-04-28 18:27 56.15394 10.87811 24072 ft 440 kts 65°
2026-04-28 18:28 56.16454 10.92969 24385 ft 441 kts 65°
2026-04-28 18:28 56.17514 10.98143 24722 ft 442 kts 65°
2026-04-28 18:28 56.18562 11.03271 25047 ft 442 kts 65°
2026-04-28 18:28 56.19621 11.08466 25354 ft 444 kts 65°
2026-04-28 18:29 56.20679 11.13670 25641 ft 445 kts 65°
2026-04-28 18:29 56.21755 11.18977 25933 ft 446 kts 65°
2026-04-28 18:29 56.22801 11.24149 26206 ft 447 kts 65°
2026-04-28 18:29 56.23860 11.29398 26458 ft 447 kts 65°
2026-04-28 18:30 56.24916 11.34651 26738 ft 447 kts 65°
2026-04-28 18:30 56.25275 11.36439 26851 ft 446 kts 65°
2026-04-28 18:30 56.27010 11.45114 27470 ft 442 kts 65°
2026-04-28 18:30 56.28046 11.50310 27851 ft 440 kts 65°